Sisseton, SD

1:47 AM CST on February 23, 2017 (GMT -0600)
Sisseton

Weather History for K8D3 - September, 2013

Change the Weather History Date:

Saturday, September 14, 2013

  Actual Average Record
Temperature  
Mean Temperature 58 °F 61 °F  
Max Temperature 63 °F 73 °F 97 °F (1969)
Min Temperature 52 °F 48 °F 32 °F (1956)
Degree Days  
Heating Degree Days 7 6  
Month to date heating degree days 27 60  
Since 1 July heating degree days 76 103  
Cooling Degree Days 0 1  
Month to date cooling degree days 65 33  
Year to date cooling degree days 600 512  
Growing Degree Days 8 (Base 50)    
Moisture  
Dew Point 55 °F    
Average Humidity 84    
Maximum Humidity 100    
Minimum Humidity 67    
Precipitation  
Precipitation 0.82 in 0.09 in 3.19 in (1900)
Month to date precipitation 0.85 1.09  
Year to date precipitation 19.52 17.83  
Sea Level Pressure  
Sea Level Pressure 29.86 in    
Wind  
Wind Speed 7 mph (SSE)    
Max Wind Speed 13 mph    
Max Gust Speed 22 mph    
T = Trace of Precipitation, MM = Missing Value Source: NWS Daily Summary

Daily Weather History Graph

Daily Weather History Graph

Search for Another Location

Airport or City:

Trip Planner

Search our weather history database for the weather conditions in past years. The results will help you decide how hot, cold, wet, or windy it might be!

Date:

Astronomy

Sep. 14, 2013 Rise Set
Actual Time 7:05 AM CDT 7:40 PM CDT
Civil Twilight 6:35 AM CDT 8:10 PM CDT
Nautical Twilight 6:00 AM CDT 8:45 PM CDT
Astronomical Twilight 5:23 AM CDT 9:22 PM CDT
Moon 4:34 PM CDT (9/14) 1:25 AM CDT (9/14)
Length of Visible Light 13h 34m
Length of Day
12h 35m
Waxing Gibbous, 72% of the Moon is Illuminated
Sep 14
Waxing Gibbous
Sep 19
Full
Sep 26
Last Quarter
Oct 4
New
Oct 11
First Quarter

Hourly Weather History & Observations

Time (CDT) Temp. Dew Point Humidity Pressure Visibility Wind Dir Wind Speed Gust Speed Precip Events Conditions
12:56 AM 55.0 °F 48.9 °F 80% 29.95 in - SSW 5.8 mph - N/A   Unknown
1:56 AM 53.1 °F 48.0 °F 83% 29.95 in - South 4.6 mph - N/A   Unknown
2:56 AM 59.0 °F 50.0 °F 72% 29.92 in - SW 8.1 mph - N/A   Unknown
3:56 AM 57.9 °F 50.0 °F 75% 29.91 in - SSW 8.1 mph - N/A   Unknown
4:56 AM 57.9 °F 50.0 °F 75% 29.91 in - South 6.9 mph - N/A   Unknown
5:56 AM 60.1 °F 50.0 °F 69% 29.88 in - South 10.4 mph - N/A   Unknown
6:56 AM 60.1 °F 50.0 °F 69% 29.88 in - South 8.1 mph - N/A   Unknown
7:56 AM 62.1 °F 51.1 °F 67% 29.88 in - SSW 10.4 mph 16.1 mph N/A   Unknown
8:56 AM 59.0 °F 55.9 °F 90% 29.88 in - SSW 5.8 mph - 0.04 in   Unknown
9:56 AM 60.1 °F 57.0 °F 90% 29.88 in - SSW 5.8 mph - 0.06 in   Unknown
10:56 AM 57.9 °F 55.9 °F 93% 29.89 in - South 6.9 mph - 0.25 in   Unknown
11:56 AM 57.9 °F 57.0 °F 97% 29.86 in - SSE 8.1 mph - 0.16 in   Unknown
12:56 PM 59.0 °F 57.9 °F 96% 29.84 in - SSE 10.4 mph - 0.02 in   Unknown
1:56 PM 59.0 °F 57.9 °F 96% 29.82 in - SSE 10.4 mph 16.1 mph N/A   Unknown
2:56 PM 60.1 °F 57.9 °F 93% 29.79 in - SSE 6.9 mph - 0.01 in   Unknown
3:56 PM 60.1 °F 57.0 °F 90% 29.78 in - SSE 9.2 mph 16.1 mph N/A   Unknown
4:56 PM 59.0 °F 57.0 °F 93% 29.78 in - SSE 6.9 mph - N/A   Unknown
5:56 PM 59.0 °F 57.9 °F 96% 29.78 in - ESE 3.5 mph - 0.01 in   Unknown
6:56 PM 59.0 °F 57.0 °F 93% 29.80 in - ENE 6.9 mph - N/A   Unknown
7:56 PM 57.9 °F 57.0 °F 97% 29.81 in - East 4.6 mph - N/A   Unknown
8:56 PM 57.9 °F 57.0 °F 97% 29.83 in - East 5.8 mph - 0.13 in   Unknown
9:56 PM 57.9 °F 57.9 °F 100% 29.84 in - Calm Calm - 0.07 in   Unknown
10:56 PM 57.9 °F 57.0 °F 97% 29.87 in - NNE 11.5 mph - 0.07 in   Unknown
11:56 PM 57.0 °F 57.0 °F 100% 29.89 in - NE 9.2 mph - N/A   Unknown